| time (UTC) | temp C | wind direction | speed KPH | gust KPH | rain 1hr cm | rain 24hr cm | rain mn cm | humidity % | barometer mb |
| 20260504150116 | 17 | 360 | 0.0 | 16.1 | 0.00 | 0.00 | 0.00 | 41 | 1010.1 |
| 20260504130112 | 15 | 360 | 0.0 | 1.6 | 0.00 | 0.00 | 0.00 | 49 | 1010.8 |
| 20260504120133 | 8 | 360 | 0.0 | 0.0 | 0.00 | 0.00 | 0.00 | 80 | 1011.4 |
| 20260504110104 | 1 | 360 | 0.0 | 0.0 | 0.00 | 0.00 | 0.00 | 93 | 1011.8 |
| 20260504100105 | 1 | 360 | 0.0 | 0.0 | 0.00 | 0.00 | 0.00 | 92 | 1011.5 |
| 20260504090109 | 1 | 360 | 0.0 | 0.0 | 0.00 | 0.00 | 0.00 | 89 | 1011.2 |
| 20260504081610 | 2 | 360 | 0.0 | 0.0 | 0.00 | 0.00 | 0.00 | 86 | 1011.3 |
| 20260504080120 | 3 | 360 | 0.0 | 0.0 | 0.00 | 0.00 | 0.00 | 85 | 1011.3 |
| 20260504070121 | 3 | 360 | 0.0 | 0.0 | 0.00 | 0.00 | 0.00 | 85 | 1011.3 |
| 20260504050008 | 2 | 360 | 0.0 | 0.0 | 0.00 | 0.00 | 0.00 | 84 | 1011.6 |
| 20260504044609 | 2 | 360 | 0.0 | 0.0 | 0.00 | 0.00 | 0.00 | 83 | 1011.7 |
| 20260504043116 | 2 | 360 | 0.0 | 0.0 | 0.00 | 0.00 | 0.00 | 82 | 1011.7 |
| 20260504041619 | 2 | 360 | 0.0 | 0.0 | 0.00 | 0.00 | 0.00 | 80 | 1011.7 |
| 20260504040007 | 2 | 360 | 0.0 | 0.0 | 0.00 | 0.00 | 0.00 | 80 | 1011.5 |
| 20260504034609 | 2 | 360 | 0.0 | 0.0 | 0.00 | 0.00 | 0.00 | 81 | 1011.5 |
| 20260504033130 | 2 | 360 | 0.0 | 0.0 | 0.00 | 0.00 | 0.00 | 78 | 1011.3 |
| 20260504031603 | 3 | 360 | 0.0 | 0.0 | 0.00 | 0.00 | 0.00 | 77 | 1011.2 |
| 20260504030118 | 3 | 360 | 0.0 | 0.0 | 0.00 | 0.00 | 0.00 | 76 | 1011.2 |
| 20260504024612 | 3 | 360 | 0.0 | 0.0 | 0.00 | 0.00 | 0.00 | 73 | 1011.1 |
| 20260504023118 | 3 | 360 | 0.0 | 0.0 | 0.00 | 0.00 | 0.00 | 71 | 1011.2 |
| 20260504021605 | 4 | 360 | 0.0 | 0.0 | 0.00 | 0.00 | 0.00 | 70 | 1011.1 |
| 20260504020108 | 5 | 360 | 0.0 | 0.0 | 0.00 | 0.00 | 0.00 | 66 | 1011.0 |
| 20260504014617 | 5 | 360 | 0.0 | 0.0 | 0.00 | 0.00 | 0.00 | 64 | 1010.7 |
| 20260504013122 | 5 | 360 | 0.0 | 0.0 | 0.00 | 0.00 | 0.00 | 62 | 1010.6 |
| 20260504011608 | 5 | 360 | 0.0 | 0.0 | 0.00 | 0.00 | 0.00 | 58 | 1010.5 |
| 20260504010113 | 6 | 360 | 0.0 | 0.0 | 0.00 | 0.00 | 0.00 | 56 | 1010.3 |
| 20260504004621 | 7 | 360 | 0.0 | 0.0 | 0.00 | 0.00 | 0.00 | 56 | 1010.1 |
| 20260504003114 | 8 | 360 | 0.0 | 0.0 | 0.00 | 0.00 | 0.00 | 50 | 1009.8 |
| 20260504001612 | 8 | 360 | 0.0 | 0.0 | 0.00 | 0.00 | 0.00 | 45 | 1009.6 |
| 20260504000117 | 10 | 360 | 0.0 | 0.0 | 0.00 | 0.00 | 0.00 | 44 | 1009.3 |
| 20260503234607 | 10 | 360 | 0.0 | 0.0 | 0.00 | 0.00 | 0.00 | 38 | 1009.2 |
| 20260503233111 | 10 | 360 | 0.0 | 0.0 | 0.00 | 0.00 | 0.00 | 44 | 1009.2 |
| 20260503231618 | 11 | 360 | 0.0 | 3.2 | 0.00 | 0.00 | 0.00 | 37 | 1009.0 |
| 20260503230114 | 11 | 360 | 0.0 | 0.0 | 0.00 | 0.00 | 0.00 | 41 | 1009.0 |
| 20260503224615 | 11 | 360 | 0.0 | 0.0 | 0.00 | 0.00 | 0.00 | 38 | 1008.9 |
| 20260503223119 | 11 | 360 | 0.0 | 0.0 | 0.00 | 0.00 | 0.00 | 36 | 1008.9 |
| 20260503221507 | 12 | 360 | 0.0 | 1.6 | 0.00 | 0.00 | 0.00 | 38 | 1008.9 |
| 20260503220110 | 11 | 360 | 0.0 | 17.7 | 0.00 | 0.00 | 0.00 | 38 | 1008.9 |
| 20260503214612 | 11 | 360 | 0.0 | 17.7 | 0.00 | 0.00 | 0.00 | 39 | 1009.0 |
| 20260503213121 | 11 | 360 | 0.0 | 9.7 | 0.00 | 0.00 | 0.00 | 41 | 1008.9 |
| 20260503211605 | 11 | 360 | 1.6 | 17.7 | 0.00 | 0.00 | 0.00 | 38 | 1009.0 |
| 20260503210112 | 12 | 360 | 0.0 | 17.7 | 0.00 | 0.00 | 0.00 | 40 | 1008.9 |
| 20260503204504 | 11 | 360 | 0.0 | 25.7 | 0.00 | 0.00 | 0.00 | 42 | 1008.8 |
| 20260503203106 | 11 | 360 | 0.0 | 0.0 | 0.00 | 0.00 | 0.00 | 42 | 1008.8 |
| 20260503201611 | 11 | 360 | 0.0 | 35.4 | 0.00 | 0.00 | 0.00 | 42 | 1008.8 |
| 20260503200003 | 11 | 360 | 1.6 | 19.3 | 0.00 | 0.00 | 0.00 | 42 | 1008.7 |
| 20260503194627 | 11 | 360 | 4.8 | 27.4 | 0.00 | 0.00 | 0.00 | 43 | 1008.8 |
| 20260503193115 | 11 | 360 | 0.0 | 16.1 | 0.00 | 0.00 | 0.00 | 41 | 1008.9 |
| 20260503191620 | 11 | 360 | 4.8 | 19.3 | 0.00 | 0.00 | 0.00 | 42 | 1008.6 |
| 20260503190108 | 11 | 360 | 1.6 | 12.9 | 0.00 | 0.00 | 0.00 | 41 | 1008.8 |
| 20260503184611 | 10 | 360 | 0.0 | 12.9 | 0.00 | 0.00 | 0.00 | 44 | 1008.8 |
| 20260503183118 | 10 | 360 | 1.6 | 24.1 | 0.00 | 0.00 | 0.00 | 43 | 1008.8 |
| 20260503181609 | 10 | 360 | 8.0 | 24.1 | 0.00 | 0.00 | 0.00 | 43 | 1008.8 |
| 20260503180113 | 10 | 360 | 0.0 | 19.3 | 0.00 | 0.00 | 0.00 | 46 | 1008.9 |
| 20260503174623 | 10 | 360 | 0.0 | 16.1 | 0.00 | 0.00 | 0.00 | 47 | 1009.0 |
| 20260503173113 | 11 | 360 | 4.8 | 33.8 | 0.00 | 0.00 | 0.00 | 45 | 1009.0 |
| 20260503171610 | 11 | 360 | 11.3 | 29.0 | 0.00 | 0.00 | 0.00 | 49 | 1008.9 |
| 20260503170120 | 11 | 360 | 4.8 | 25.7 | 0.00 | 0.00 | 0.00 | 44 | 1008.7 |
| 20260503160109 | 10 | 360 | 0.0 | 12.9 | 0.00 | 0.00 | 0.00 | 45 | 1008.4 |